Year,Month,Day,Hour,Minute,Value (Times are PST for temperature in C)
2018,07,25,00,00,18.80
2018,07,25,00,01,18.80
2018,07,25,00,02,18.80
2018,07,25,00,03,18.80
2018,07,25,00,04,18.80
2018,07,25,00,05,18.80
2018,07,25,00,06,18.80
2018,07,25,00,07,18.80
2018,07,25,00,08,18.90
2018,07,25,00,09,18.90
2018,07,25,00,10,18.90
2018,07,25,00,11,18.90
2018,07,25,00,12,18.90
2018,07,25,00,13,18.90
2018,07,25,00,14,18.90
2018,07,25,00,15,19.00
2018,07,25,00,16,19.00
2018,07,25,00,17,19.00
2018,07,25,00,18,19.00
2018,07,25,00,19,19.00
2018,07,25,00,20,19.00
2018,07,25,00,21,19.00
2018,07,25,00,22,19.00
2018,07,25,00,23,19.00
2018,07,25,00,24,18.90
2018,07,25,00,25,18.90
2018,07,25,00,26,18.90
2018,07,25,00,27,18.90
2018,07,25,00,28,18.90
2018,07,25,00,29,18.90
2018,07,25,00,30,18.90
2018,07,25,00,31,18.90
2018,07,25,00,32,18.80
2018,07,25,00,33,18.80
2018,07,25,00,34,18.80
2018,07,25,00,35,18.80
2018,07,25,00,36,18.70
2018,07,25,00,37,18.70
2018,07,25,00,38,18.70
2018,07,25,00,39,18.60
2018,07,25,00,40,18.60
2018,07,25,00,41,18.60
2018,07,25,00,42,18.50
2018,07,25,00,43,18.50
2018,07,25,00,44,18.50
2018,07,25,00,45,18.50
2018,07,25,00,46,18.40
2018,07,25,00,47,18.40
2018,07,25,00,48,18.40
2018,07,25,00,49,18.40
2018,07,25,00,50,18.40
2018,07,25,00,51,18.30
2018,07,25,00,52,18.30
2018,07,25,00,53,18.30
2018,07,25,00,54,18.30
2018,07,25,00,55,18.30
2018,07,25,00,56,18.30
2018,07,25,00,57,18.30
2018,07,25,00,58,18.20
2018,07,25,00,59,18.20
2018,07,25,01,00,18.20
2018,07,25,01,01,18.10
2018,07,25,01,02,18.10
2018,07,25,01,03,18.10
2018,07,25,01,04,18.00
2018,07,25,01,05,18.00
2018,07,25,01,06,17.90
2018,07,25,01,07,17.90
2018,07,25,01,08,17.90
2018,07,25,01,09,17.90
2018,07,25,01,10,17.90
2018,07,25,01,11,17.80
2018,07,25,01,12,17.80
2018,07,25,01,13,17.80
2018,07,25,01,14,17.80
2018,07,25,01,15,17.80
2018,07,25,01,16,17.80
2018,07,25,01,17,17.80
2018,07,25,01,18,17.80
2018,07,25,01,19,17.80
2018,07,25,01,20,17.80
2018,07,25,01,21,17.80
2018,07,25,01,22,17.80
2018,07,25,01,23,17.80
2018,07,25,01,24,17.70
2018,07,25,01,25,17.70
2018,07,25,01,26,17.70
2018,07,25,01,27,17.70
2018,07,25,01,28,17.60
2018,07,25,01,29,17.60
2018,07,25,01,30,17.60
2018,07,25,01,31,17.50
2018,07,25,01,32,17.50
2018,07,25,01,33,17.50
2018,07,25,01,34,17.40
2018,07,25,01,35,17.40
2018,07,25,01,36,17.40
2018,07,25,01,37,17.40
2018,07,25,01,38,17.40
2018,07,25,01,39,17.30
2018,07,25,01,40,17.30
2018,07,25,01,41,17.30
2018,07,25,01,42,17.30
2018,07,25,01,43,17.30
2018,07,25,01,44,17.30
2018,07,25,01,45,17.30
2018,07,25,01,46,17.30
2018,07,25,01,47,17.30
2018,07,25,01,48,17.20
2018,07,25,01,49,17.20
2018,07,25,01,50,17.20
2018,07,25,01,51,17.20
2018,07,25,01,52,17.20
2018,07,25,01,53,17.20
2018,07,25,01,54,17.10
2018,07,25,01,55,17.10
2018,07,25,01,56,17.10
2018,07,25,01,57,17.10
2018,07,25,01,58,17.10
2018,07,25,01,59,17.10
2018,07,25,02,00,17.00
2018,07,25,02,01,17.00
2018,07,25,02,02,17.00
2018,07,25,02,03,17.00
2018,07,25,02,04,17.00
2018,07,25,02,05,17.00
2018,07,25,02,06,17.00
2018,07,25,02,07,16.90
2018,07,25,02,08,16.90
2018,07,25,02,09,16.90
2018,07,25,02,10,16.90
2018,07,25,02,11,16.90
2018,07,25,02,12,16.90
2018,07,25,02,13,16.90
2018,07,25,02,14,16.90
2018,07,25,02,15,16.90
2018,07,25,02,16,16.90
2018,07,25,02,17,17.00
2018,07,25,02,18,17.00
2018,07,25,02,19,17.00
2018,07,25,02,20,17.00
2018,07,25,02,21,17.00
2018,07,25,02,22,17.00
2018,07,25,02,23,17.00
2018,07,25,02,24,17.00
2018,07,25,02,25,16.90
2018,07,25,02,26,16.90
2018,07,25,02,27,16.90
2018,07,25,02,28,16.90
2018,07,25,02,29,16.90
2018,07,25,02,30,16.90
2018,07,25,02,31,16.80
2018,07,25,02,32,16.80
2018,07,25,02,33,16.80
2018,07,25,02,34,16.80
2018,07,25,02,35,16.80
2018,07,25,02,36,16.70
2018,07,25,02,37,16.70
2018,07,25,02,38,16.70
2018,07,25,02,39,16.70
2018,07,25,02,40,16.70
2018,07,25,02,41,16.70
2018,07,25,02,42,16.70
2018,07,25,02,43,16.70
2018,07,25,02,44,16.70
2018,07,25,02,45,16.80
2018,07,25,02,46,16.80
2018,07,25,02,47,16.80
2018,07,25,02,48,16.80
2018,07,25,02,49,16.80
2018,07,25,02,50,16.80
2018,07,25,02,51,16.90
2018,07,25,02,52,17.00
2018,07,25,02,53,17.00
2018,07,25,02,54,17.10
2018,07,25,02,55,17.20
2018,07,25,02,56,17.20
2018,07,25,02,57,17.20
2018,07,25,02,58,17.30
2018,07,25,02,59,17.30
2018,07,25,03,00,17.40
2018,07,25,03,01,17.40
2018,07,25,03,02,17.40
2018,07,25,03,03,17.40
2018,07,25,03,04,17.40
2018,07,25,03,05,17.50
2018,07,25,03,06,17.50
2018,07,25,03,07,17.50
2018,07,25,03,08,17.60
2018,07,25,03,09,17.60
2018,07,25,03,10,17.60
2018,07,25,03,11,17.60
2018,07,25,03,12,17.70
2018,07,25,03,13,17.70
2018,07,25,03,14,17.70
2018,07,25,03,15,17.70
2018,07,25,03,16,17.70
2018,07,25,03,17,17.70
2018,07,25,03,18,17.70
2018,07,25,03,19,17.70
2018,07,25,03,20,17.70
2018,07,25,03,21,17.70
2018,07,25,03,22,17.80
2018,07,25,03,23,17.80
2018,07,25,03,24,17.90
2018,07,25,03,25,18.00
2018,07,25,03,26,18.10
2018,07,25,03,27,18.20
2018,07,25,03,28,18.30
2018,07,25,03,29,18.50
2018,07,25,03,30,18.60
2018,07,25,03,31,18.90
2018,07,25,03,32,19.10
2018,07,25,03,33,19.20
2018,07,25,03,34,19.30
2018,07,25,03,35,19.30
2018,07,25,03,36,19.30
2018,07,25,03,37,19.30
2018,07,25,03,38,19.20
2018,07,25,03,39,19.10
2018,07,25,03,40,19.10
2018,07,25,03,41,19.00
2018,07,25,03,42,18.90
2018,07,25,03,43,18.90
2018,07,25,03,44,18.90
2018,07,25,03,45,18.80
2018,07,25,03,46,18.80
2018,07,25,03,47,18.70
2018,07,25,03,48,18.70
2018,07,25,03,49,18.60
2018,07,25,03,50,18.60
2018,07,25,03,51,18.60
2018,07,25,03,52,18.60
2018,07,25,03,53,18.50
2018,07,25,03,54,18.50
2018,07,25,03,55,18.40
2018,07,25,03,56,18.40
2018,07,25,03,57,18.30
2018,07,25,03,58,18.20
2018,07,25,03,59,18.20
2018,07,25,04,00,18.10
2018,07,25,04,01,18.10
2018,07,25,04,02,18.00
2018,07,25,04,03,18.00
2018,07,25,04,04,18.00
2018,07,25,04,05,18.00
2018,07,25,04,06,18.00
2018,07,25,04,07,18.00
2018,07,25,04,08,18.00
2018,07,25,04,09,18.00
2018,07,25,04,10,18.00
2018,07,25,04,11,18.00
2018,07,25,04,12,18.00
2018,07,25,04,13,18.00
2018,07,25,04,14,18.00
2018,07,25,04,15,18.00
2018,07,25,04,16,18.10
2018,07,25,04,17,18.10
2018,07,25,04,18,18.20
2018,07,25,04,19,18.20
2018,07,25,04,20,18.40
2018,07,25,04,21,18.50
2018,07,25,04,22,18.60
2018,07,25,04,23,18.70
2018,07,25,04,24,18.80
2018,07,25,04,25,18.90
2018,07,25,04,26,18.90
2018,07,25,04,27,18.90
2018,07,25,04,28,18.90
2018,07,25,04,29,18.80
2018,07,25,04,30,18.70
2018,07,25,04,31,18.50
2018,07,25,04,32,18.40
2018,07,25,04,33,18.30
2018,07,25,04,34,18.20
2018,07,25,04,35,18.00
2018,07,25,04,36,17.90
2018,07,25,04,37,17.80
2018,07,25,04,38,17.70
2018,07,25,04,39,17.60
2018,07,25,04,40,17.50
2018,07,25,04,41,17.40
2018,07,25,04,42,17.30
2018,07,25,04,43,17.20
2018,07,25,04,44,17.20
2018,07,25,04,45,17.10
2018,07,25,04,46,17.10
2018,07,25,04,47,17.10
2018,07,25,04,48,17.10
2018,07,25,04,49,17.10
2018,07,25,04,50,17.10
2018,07,25,04,51,17.10
2018,07,25,04,52,17.10
2018,07,25,04,53,17.10
2018,07,25,04,54,17.10
2018,07,25,04,55,17.20
2018,07,25,04,56,17.20
2018,07,25,04,57,17.20
2018,07,25,04,58,17.20
2018,07,25,04,59,17.20
2018,07,25,05,00,17.20
2018,07,25,05,01,17.10
2018,07,25,05,02,17.10
2018,07,25,05,03,17.10
2018,07,25,05,04,17.00
2018,07,25,05,05,17.00
2018,07,25,05,06,16.90
2018,07,25,05,07,16.80
2018,07,25,05,08,16.80
2018,07,25,05,09,16.80
2018,07,25,05,10,16.70
2018,07,25,05,11,16.70
2018,07,25,05,12,16.60
2018,07,25,05,13,16.60
2018,07,25,05,14,16.60
2018,07,25,05,15,16.60
2018,07,25,05,16,16.50
2018,07,25,05,17,16.50
2018,07,25,05,18,16.40
2018,07,25,05,19,16.40
2018,07,25,05,20,16.40
2018,07,25,05,21,16.40
2018,07,25,05,22,16.30
2018,07,25,05,23,16.30
2018,07,25,05,24,16.30
2018,07,25,05,25,16.30
2018,07,25,05,26,16.30
2018,07,25,05,27,16.20
2018,07,25,05,28,16.20
2018,07,25,05,29,16.20
2018,07,25,05,30,16.10
2018,07,25,05,31,16.10
2018,07,25,05,32,16.10
2018,07,25,05,33,16.10
2018,07,25,05,34,16.10
2018,07,25,05,35,16.10
2018,07,25,05,36,16.10
2018,07,25,05,37,16.10
2018,07,25,05,38,16.00
2018,07,25,05,39,16.00
2018,07,25,05,40,16.00
2018,07,25,05,41,16.00
2018,07,25,05,42,15.90
2018,07,25,05,43,15.90
2018,07,25,05,44,15.90
2018,07,25,05,45,15.80
2018,07,25,05,46,15.80
2018,07,25,05,47,15.80
2018,07,25,05,48,15.90
2018,07,25,05,49,15.90
2018,07,25,05,50,16.00
2018,07,25,05,51,16.10
2018,07,25,05,52,16.10
2018,07,25,05,53,16.20
2018,07,25,05,54,16.20
2018,07,25,05,55,16.30
2018,07,25,05,56,16.40
2018,07,25,05,57,16.50
2018,07,25,05,58,16.50
2018,07,25,05,59,16.60
2018,07,25,06,00,16.70
2018,07,25,06,01,16.80
2018,07,25,06,02,16.90
2018,07,25,06,03,17.00
2018,07,25,06,04,17.20
2018,07,25,06,05,17.30
2018,07,25,06,06,17.40
2018,07,25,06,07,17.50
2018,07,25,06,08,17.60
2018,07,25,06,09,17.60
2018,07,25,06,10,17.80
2018,07,25,06,11,18.00
2018,07,25,06,12,18.10
2018,07,25,06,13,18.20
2018,07,25,06,14,18.40
2018,07,25,06,15,18.50
2018,07,25,06,16,18.60
2018,07,25,06,17,18.60
2018,07,25,06,18,18.70
2018,07,25,06,19,18.80
2018,07,25,06,20,18.90
2018,07,25,06,21,19.00
2018,07,25,06,22,19.00
2018,07,25,06,23,19.10
2018,07,25,06,24,19.10
2018,07,25,06,25,19.20
2018,07,25,06,26,19.30
2018,07,25,06,27,19.30
2018,07,25,06,28,19.40
2018,07,25,06,29,19.50
2018,07,25,06,30,19.50
2018,07,25,06,31,19.60
2018,07,25,06,32,19.70
2018,07,25,06,33,19.70
2018,07,25,06,34,19.80
2018,07,25,06,35,19.80
2018,07,25,06,36,19.80
2018,07,25,06,37,19.80
2018,07,25,06,38,19.80
2018,07,25,06,39,19.80
2018,07,25,06,40,19.80
2018,07,25,06,41,19.80
2018,07,25,06,42,19.80
2018,07,25,06,43,19.90
2018,07,25,06,44,19.90
2018,07,25,06,45,19.90
2018,07,25,06,46,19.90
2018,07,25,06,47,19.90
2018,07,25,06,48,19.90
2018,07,25,06,49,19.90
2018,07,25,06,50,19.90
2018,07,25,06,51,20.00
2018,07,25,06,52,20.00
2018,07,25,06,53,20.00
2018,07,25,06,54,20.00
2018,07,25,06,55,20.00
2018,07,25,06,56,20.00
2018,07,25,06,57,20.10
2018,07,25,06,58,20.10
2018,07,25,06,59,20.10
2018,07,25,07,00,20.10
2018,07,25,07,01,20.10
2018,07,25,07,02,20.10
2018,07,25,07,03,20.10
2018,07,25,07,04,20.10
2018,07,25,07,05,20.10
2018,07,25,07,06,20.10
2018,07,25,07,07,20.10
2018,07,25,07,08,20.10
2018,07,25,07,09,20.10
2018,07,25,07,10,20.10
2018,07,25,07,11,20.10
2018,07,25,07,12,20.10
2018,07,25,07,13,20.10
2018,07,25,07,14,20.10
2018,07,25,07,15,20.10
2018,07,25,07,16,20.00
2018,07,25,07,17,20.00
2018,07,25,07,18,20.00
2018,07,25,07,19,20.00
2018,07,25,07,20,20.00
2018,07,25,07,21,20.00
2018,07,25,07,22,20.10
2018,07,25,07,23,20.10
2018,07,25,07,24,20.10
2018,07,25,07,25,20.10
2018,07,25,07,26,20.10
2018,07,25,07,27,20.20
2018,07,25,07,28,20.20
2018,07,25,07,29,20.20
2018,07,25,07,30,20.20
2018,07,25,07,31,20.20
2018,07,25,07,32,20.30
2018,07,25,07,33,20.30
2018,07,25,07,34,20.30
2018,07,25,07,35,20.30
2018,07,25,07,36,20.30
2018,07,25,07,37,20.40
2018,07,25,07,38,20.30
2018,07,25,07,39,20.30
2018,07,25,07,40,20.40
2018,07,25,07,41,20.30
2018,07,25,07,42,20.40
2018,07,25,07,43,20.40
2018,07,25,07,44,20.40
2018,07,25,07,45,20.40
2018,07,25,07,46,20.40
2018,07,25,07,47,20.40
2018,07,25,07,48,20.40
2018,07,25,07,49,20.40
2018,07,25,07,50,20.40
2018,07,25,07,51,20.40
2018,07,25,07,52,20.40
2018,07,25,07,53,20.40
2018,07,25,07,54,20.40
2018,07,25,07,55,20.50
2018,07,25,07,56,20.50
2018,07,25,07,57,20.50
2018,07,25,07,58,20.40
2018,07,25,07,59,20.50
2018,07,25,08,00,20.50
2018,07,25,08,01,20.40
2018,07,25,08,02,20.50
2018,07,25,08,03,20.50
2018,07,25,08,04,20.50
2018,07,25,08,05,20.50
2018,07,25,08,06,20.50
2018,07,25,08,07,20.50
2018,07,25,08,08,20.50
2018,07,25,08,09,20.50
2018,07,25,08,10,20.50
2018,07,25,08,11,20.50
2018,07,25,08,12,20.50
2018,07,25,08,13,20.50
2018,07,25,08,14,20.50
2018,07,25,08,15,20.50
2018,07,25,08,16,20.60
2018,07,25,08,17,20.60
2018,07,25,08,18,20.60
2018,07,25,08,19,20.60
2018,07,25,08,20,20.60
2018,07,25,08,21,20.60
2018,07,25,08,22,20.60
2018,07,25,08,23,20.60
2018,07,25,08,24,20.60
2018,07,25,08,25,20.60
2018,07,25,08,26,20.60
2018,07,25,08,27,20.60
2018,07,25,08,28,20.60
2018,07,25,08,29,20.60
2018,07,25,08,30,20.60
2018,07,25,08,31,20.60
2018,07,25,08,32,20.60
2018,07,25,08,33,20.60
2018,07,25,08,34,20.70
2018,07,25,08,35,20.70
2018,07,25,08,36,20.70
2018,07,25,08,37,20.70
2018,07,25,08,38,20.70
2018,07,25,08,39,20.70
2018,07,25,08,40,20.70
2018,07,25,08,41,20.70
2018,07,25,08,42,20.60
2018,07,25,08,43,20.70
2018,07,25,08,44,20.70
2018,07,25,08,45,20.70
2018,07,25,08,46,20.70
2018,07,25,08,47,20.70
2018,07,25,08,48,20.70
2018,07,25,08,49,20.70
2018,07,25,08,50,20.80
2018,07,25,08,51,20.80
2018,07,25,08,52,20.80
2018,07,25,08,53,20.80
2018,07,25,08,54,20.80
2018,07,25,08,55,20.80
2018,07,25,08,56,20.80
2018,07,25,08,57,20.90
2018,07,25,08,58,20.90
2018,07,25,08,59,20.90
2018,07,25,09,00,20.90
2018,07,25,09,01,21.00
2018,07,25,09,02,21.00
2018,07,25,09,03,21.00
2018,07,25,09,04,21.00
2018,07,25,09,05,21.00
2018,07,25,09,06,21.00
2018,07,25,09,07,21.00
2018,07,25,09,08,21.00
2018,07,25,09,09,21.00
2018,07,25,09,10,21.10
2018,07,25,09,11,21.10
2018,07,25,09,12,21.10
2018,07,25,09,13,21.20
2018,07,25,09,14,21.20
2018,07,25,09,15,21.30
2018,07,25,09,16,21.30
2018,07,25,09,17,21.30
2018,07,25,09,18,21.30
2018,07,25,09,19,21.40
2018,07,25,09,20,21.40
2018,07,25,09,21,21.40
2018,07,25,09,22,21.30
2018,07,25,09,23,21.30
2018,07,25,09,24,21.30
2018,07,25,09,25,21.40
2018,07,25,09,26,21.40
2018,07,25,09,27,21.50
2018,07,25,09,28,21.50
2018,07,25,09,29,21.60
2018,07,25,09,30,21.60
2018,07,25,09,31,21.60
2018,07,25,09,32,21.50
2018,07,25,09,33,21.60
2018,07,25,09,34,21.60
2018,07,25,09,35,21.60
2018,07,25,09,36,21.60
2018,07,25,09,37,21.60
2018,07,25,09,38,21.70
2018,07,25,09,39,21.70
2018,07,25,09,40,21.80
2018,07,25,09,41,21.80
2018,07,25,09,42,21.90
2018,07,25,09,43,21.90
2018,07,25,09,44,22.00
2018,07,25,09,45,22.10
2018,07,25,09,46,22.20
2018,07,25,09,47,22.30
2018,07,25,09,48,22.30
2018,07,25,09,49,22.50
2018,07,25,09,50,22.60
2018,07,25,09,51,22.70
2018,07,25,09,52,22.70
2018,07,25,09,53,22.70
2018,07,25,09,54,22.80
2018,07,25,09,55,22.80
2018,07,25,09,56,22.80
2018,07,25,09,57,22.80
2018,07,25,09,58,22.80
2018,07,25,09,59,22.80
2018,07,25,10,00,22.80
2018,07,25,10,01,22.80
2018,07,25,10,02,22.80
2018,07,25,10,03,22.70
2018,07,25,10,04,22.80
2018,07,25,10,05,22.80
2018,07,25,10,06,22.80
2018,07,25,10,07,22.80
2018,07,25,10,08,22.90
2018,07,25,10,09,22.90
2018,07,25,10,10,23.00
2018,07,25,10,11,23.10
2018,07,25,10,12,23.20
2018,07,25,10,13,23.20
2018,07,25,10,14,23.20
2018,07,25,10,15,23.20
2018,07,25,10,16,23.20
2018,07,25,10,17,23.20
2018,07,25,10,18,23.10
2018,07,25,10,19,23.10
2018,07,25,10,20,23.10
2018,07,25,10,21,23.10
2018,07,25,10,22,23.00
2018,07,25,10,23,23.00
2018,07,25,10,24,23.00
2018,07,25,10,25,23.00
2018,07,25,10,26,23.00
2018,07,25,10,27,23.10
2018,07,25,10,28,23.10
2018,07,25,10,29,23.10
2018,07,25,10,30,23.10
2018,07,25,10,31,23.10
2018,07,25,10,32,23.10
2018,07,25,10,33,23.10
2018,07,25,10,34,23.10
2018,07,25,10,35,23.10
2018,07,25,10,36,23.10
2018,07,25,10,37,23.20
2018,07,25,10,38,23.20
2018,07,25,10,39,23.30
2018,07,25,10,40,23.30
2018,07,25,10,41,23.30
2018,07,25,10,42,23.30
2018,07,25,10,43,23.20
2018,07,25,10,44,23.20
2018,07,25,10,45,23.30
2018,07,25,10,46,23.30
2018,07,25,10,47,23.30
2018,07,25,10,48,23.30
2018,07,25,10,49,23.40
2018,07,25,10,50,23.50
2018,07,25,10,51,23.60
2018,07,25,10,52,23.70
2018,07,25,10,53,23.70
2018,07,25,10,54,23.70
2018,07,25,10,55,23.70
2018,07,25,10,56,23.70
2018,07,25,10,57,23.60
2018,07,25,10,58,23.70
2018,07,25,10,59,23.70
2018,07,25,11,00,23.80
2018,07,25,11,01,23.90
2018,07,25,11,02,23.90
2018,07,25,11,03,23.90
2018,07,25,11,04,23.90
2018,07,25,11,05,23.80
2018,07,25,11,06,23.80
2018,07,25,11,07,23.80
2018,07,25,11,08,23.90
2018,07,25,11,09,24.00
2018,07,25,11,10,24.00
2018,07,25,11,11,24.10
2018,07,25,11,12,24.10
2018,07,25,11,13,24.20
2018,07,25,11,14,24.30
2018,07,25,11,15,24.30
2018,07,25,11,16,24.40
2018,07,25,11,17,24.40
2018,07,25,11,18,24.40
2018,07,25,11,19,24.30
2018,07,25,11,20,24.30
2018,07,25,11,21,24.30
2018,07,25,11,22,24.30
2018,07,25,11,23,24.30
2018,07,25,11,24,24.40
2018,07,25,11,25,24.40
2018,07,25,11,26,24.40
2018,07,25,11,27,24.40
2018,07,25,11,28,24.50
2018,07,25,11,29,24.50
2018,07,25,11,30,24.40
2018,07,25,11,31,24.40
2018,07,25,11,32,24.30
2018,07,25,11,33,24.30
2018,07,25,11,34,24.10
2018,07,25,11,35,24.00
2018,07,25,11,36,23.90
2018,07,25,11,37,23.90
2018,07,25,11,38,23.90
2018,07,25,11,39,24.00
2018,07,25,11,40,24.00
2018,07,25,11,41,24.10
2018,07,25,11,42,24.20
2018,07,25,11,43,24.30
2018,07,25,11,44,24.40
2018,07,25,11,45,24.50
2018,07,25,11,46,24.50
2018,07,25,11,47,24.60
2018,07,25,11,48,24.60
2018,07,25,11,49,24.50
2018,07,25,11,50,24.60
2018,07,25,11,51,24.60
2018,07,25,11,52,24.60
2018,07,25,11,53,24.60
2018,07,25,11,54,24.60
2018,07,25,11,55,24.60
2018,07,25,11,56,24.50
2018,07,25,11,57,24.50
2018,07,25,11,58,24.60
2018,07,25,11,59,24.60
2018,07,25,12,00,24.60
2018,07,25,12,01,24.60
2018,07,25,12,02,24.50
2018,07,25,12,03,24.50
2018,07,25,12,04,24.60
2018,07,25,12,05,24.60
2018,07,25,12,06,24.50
2018,07,25,12,07,24.50
2018,07,25,12,08,24.50
2018,07,25,12,09,24.50
2018,07,25,12,10,24.50
2018,07,25,12,11,24.60
2018,07,25,12,12,24.60
2018,07,25,12,13,24.70
2018,07,25,12,14,24.70
2018,07,25,12,15,24.70
2018,07,25,12,16,24.70
2018,07,25,12,17,24.70
2018,07,25,12,18,24.70
2018,07,25,12,19,24.70
2018,07,25,12,20,24.70
2018,07,25,12,21,24.70
2018,07,25,12,22,24.70
2018,07,25,12,23,24.80
2018,07,25,12,24,24.90
2018,07,25,12,25,25.00
2018,07,25,12,26,25.00
2018,07,25,12,27,25.00
2018,07,25,12,28,25.00
2018,07,25,12,29,25.00
2018,07,25,12,30,24.90
2018,07,25,12,31,24.90
2018,07,25,12,32,24.90
2018,07,25,12,33,24.90
2018,07,25,12,34,25.00
2018,07,25,12,35,25.00
2018,07,25,12,36,25.00
2018,07,25,12,37,24.90
2018,07,25,12,38,24.90
2018,07,25,12,39,24.90
2018,07,25,12,40,24.90
2018,07,25,12,41,24.90
2018,07,25,12,42,25.00
2018,07,25,12,43,25.00
2018,07,25,12,44,25.00
2018,07,25,12,45,25.20
2018,07,25,12,46,25.30
2018,07,25,12,47,25.30
2018,07,25,12,48,25.30
2018,07,25,12,49,25.30
2018,07,25,12,50,25.20
2018,07,25,12,51,25.30
2018,07,25,12,52,25.30
2018,07,25,12,53,25.40
2018,07,25,12,54,25.40
2018,07,25,12,55,25.40
2018,07,25,12,56,25.40
2018,07,25,12,57,25.50
2018,07,25,12,58,25.60
2018,07,25,12,59,25.60
2018,07,25,13,00,25.50
2018,07,25,13,01,25.50
2018,07,25,13,02,25.50
2018,07,25,13,03,25.40
2018,07,25,13,04,25.40
2018,07,25,13,05,25.40
2018,07,25,13,06,25.50
2018,07,25,13,07,25.50
2018,07,25,13,08,25.50
2018,07,25,13,09,25.60
2018,07,25,13,10,25.50
2018,07,25,13,11,25.50
2018,07,25,13,12,25.50
2018,07,25,13,13,25.40
2018,07,25,13,14,25.40
2018,07,25,13,15,25.40
2018,07,25,13,16,25.50
2018,07,25,13,17,25.50
2018,07,25,13,18,25.60
2018,07,25,13,19,25.60
2018,07,25,13,20,25.60
2018,07,25,13,21,25.60
2018,07,25,13,22,25.70
2018,07,25,13,23,25.80
2018,07,25,13,24,25.80
2018,07,25,13,25,25.80
2018,07,25,13,26,25.80
2018,07,25,13,27,25.80
2018,07,25,13,28,25.80
2018,07,25,13,29,25.80
2018,07,25,13,30,25.80
2018,07,25,13,31,25.70
2018,07,25,13,32,25.70
2018,07,25,13,33,25.60
2018,07,25,13,34,25.80
2018,07,25,13,35,25.90
2018,07,25,13,36,26.10
2018,07,25,13,37,26.20
2018,07,25,13,38,26.30
2018,07,25,13,39,26.40
2018,07,25,13,40,26.40
2018,07,25,13,41,26.40
2018,07,25,13,42,26.40
2018,07,25,13,43,26.50
2018,07,25,13,44,26.50
2018,07,25,13,45,26.40
2018,07,25,13,46,26.30
2018,07,25,13,47,26.10
2018,07,25,13,48,26.10
2018,07,25,13,49,26.20
2018,07,25,13,50,26.20
2018,07,25,13,51,26.30
2018,07,25,13,52,26.30
2018,07,25,13,53,26.20
2018,07,25,13,54,26.10
2018,07,25,13,55,26.10
2018,07,25,13,56,26.10
2018,07,25,13,57,26.20
2018,07,25,13,58,26.30
2018,07,25,13,59,26.40
2018,07,25,14,00,26.40
2018,07,25,14,01,26.40
2018,07,25,14,02,26.40
2018,07,25,14,03,26.40
2018,07,25,14,04,26.40
2018,07,25,14,05,26.40
2018,07,25,14,06,26.40
2018,07,25,14,07,26.40
2018,07,25,14,08,26.40
2018,07,25,14,09,26.30
2018,07,25,14,10,26.30
2018,07,25,14,11,26.30
2018,07,25,14,12,26.30
2018,07,25,14,13,26.30
2018,07,25,14,14,26.30
2018,07,25,14,15,26.30
2018,07,25,14,16,26.40
2018,07,25,14,17,26.60
2018,07,25,14,18,26.70
2018,07,25,14,19,26.70
2018,07,25,14,20,26.70
2018,07,25,14,21,26.70
2018,07,25,14,22,26.70
2018,07,25,14,23,26.80
2018,07,25,14,24,26.90
2018,07,25,14,25,27.00
2018,07,25,14,26,26.90
2018,07,25,14,27,26.80
2018,07,25,14,28,26.80
2018,07,25,14,29,26.60
2018,07,25,14,30,26.50
2018,07,25,14,31,26.40
2018,07,25,14,32,26.30
2018,07,25,14,33,26.30
2018,07,25,14,34,26.30
2018,07,25,14,35,26.30
2018,07,25,14,36,26.40
2018,07,25,14,37,26.40
2018,07,25,14,38,26.40
2018,07,25,14,39,26.50
2018,07,25,14,40,26.50
2018,07,25,14,41,26.60
2018,07,25,14,42,26.60
2018,07,25,14,43,26.70
2018,07,25,14,44,26.70
2018,07,25,14,45,26.70
2018,07,25,14,46,26.70
2018,07,25,14,47,26.70
2018,07,25,14,48,26.80
2018,07,25,14,49,27.00
2018,07,25,14,50,27.10
2018,07,25,14,51,27.10
2018,07,25,14,52,27.20
2018,07,25,14,53,27.20
2018,07,25,14,54,27.30
2018,07,25,14,55,27.30
2018,07,25,14,56,27.30
2018,07,25,14,57,27.40
2018,07,25,14,58,27.50
2018,07,25,14,59,27.50
2018,07,25,15,00,27.50
2018,07,25,15,01,27.60
2018,07,25,15,02,27.70
2018,07,25,15,03,27.80
2018,07,25,15,04,27.90
2018,07,25,15,05,27.90
2018,07,25,15,06,28.00
2018,07,25,15,07,27.90
2018,07,25,15,08,27.90
2018,07,25,15,09,27.90
2018,07,25,15,10,27.80
2018,07,25,15,11,27.80
2018,07,25,15,12,27.80
2018,07,25,15,13,27.70
2018,07,25,15,14,27.70
2018,07,25,15,15,27.70
2018,07,25,15,16,27.80
2018,07,25,15,17,27.80
2018,07,25,15,18,27.80
2018,07,25,15,19,27.80
2018,07,25,15,20,27.70
2018,07,25,15,21,27.80
2018,07,25,15,22,27.80
2018,07,25,15,23,27.90
2018,07,25,15,24,27.90
2018,07,25,15,25,27.90
2018,07,25,15,26,27.90
2018,07,25,15,27,28.00
2018,07,25,15,28,28.10
2018,07,25,15,29,28.20
2018,07,25,15,30,28.30
2018,07,25,15,31,28.30
2018,07,25,15,32,28.30
2018,07,25,15,33,28.30
2018,07,25,15,34,28.30
2018,07,25,15,35,28.30
2018,07,25,15,36,28.30
2018,07,25,15,37,28.30
2018,07,25,15,38,28.40
2018,07,25,15,39,28.50
2018,07,25,15,40,28.60
2018,07,25,15,41,28.60
2018,07,25,15,42,28.70
2018,07,25,15,43,28.70
2018,07,25,15,44,28.70
2018,07,25,15,45,28.70
2018,07,25,15,46,28.70
2018,07,25,15,47,28.70
2018,07,25,15,48,28.80
2018,07,25,15,49,28.90
2018,07,25,15,50,28.90
2018,07,25,15,51,29.00
2018,07,25,15,52,28.90
2018,07,25,15,53,28.90
2018,07,25,15,54,29.00
2018,07,25,15,55,29.10
2018,07,25,15,56,29.20
2018,07,25,15,57,29.20
2018,07,25,15,58,29.20
2018,07,25,15,59,29.20
2018,07,25,16,00,29.10
2018,07,25,16,01,29.00
2018,07,25,16,02,29.00
2018,07,25,16,03,29.00
2018,07,25,16,04,29.00
2018,07,25,16,05,29.10
2018,07,25,16,06,29.10
2018,07,25,16,07,29.20
2018,07,25,16,08,29.20
2018,07,25,16,09,29.30
2018,07,25,16,10,29.30
2018,07,25,16,11,29.30
2018,07,25,16,12,29.40
2018,07,25,16,13,29.40
2018,07,25,16,14,29.40
2018,07,25,16,15,29.40
2018,07,25,16,16,29.60
2018,07,25,16,17,29.70
2018,07,25,16,18,29.80
2018,07,25,16,19,29.90
2018,07,25,16,20,30.00
2018,07,25,16,21,30.10
2018,07,25,16,22,30.10
2018,07,25,16,23,30.20
2018,07,25,16,24,30.30
2018,07,25,16,25,30.40
2018,07,25,16,26,30.50
2018,07,25,16,27,30.60
2018,07,25,16,28,30.60
2018,07,25,16,29,30.40
2018,07,25,16,30,30.10
2018,07,25,16,31,29.80
2018,07,25,16,32,29.50
2018,07,25,16,33,29.10
2018,07,25,16,34,28.90
2018,07,25,16,35,28.70
2018,07,25,16,36,28.50
2018,07,25,16,37,28.40
2018,07,25,16,38,28.30
2018,07,25,16,39,28.20
2018,07,25,16,40,28.20
2018,07,25,16,41,28.20
2018,07,25,16,42,28.10
2018,07,25,16,43,28.10
2018,07,25,16,44,28.00
2018,07,25,16,45,28.00
2018,07,25,16,46,27.90
2018,07,25,16,47,27.90
2018,07,25,16,48,27.90
2018,07,25,16,49,27.90
2018,07,25,16,50,28.00
2018,07,25,16,51,28.00
2018,07,25,16,52,28.10
2018,07,25,16,53,28.10
2018,07,25,16,54,28.10
2018,07,25,16,55,28.10
2018,07,25,16,56,28.10
2018,07,25,16,57,28.10
2018,07,25,16,58,28.10
2018,07,25,16,59,28.00
2018,07,25,17,00,27.90
2018,07,25,17,01,27.80
2018,07,25,17,02,27.80
2018,07,25,17,03,27.80
2018,07,25,17,04,27.70
2018,07,25,17,05,27.70
2018,07,25,17,06,27.70
2018,07,25,17,07,27.70
2018,07,25,17,08,27.80
2018,07,25,17,09,27.80
2018,07,25,17,10,27.80
2018,07,25,17,11,27.90
2018,07,25,17,12,27.90
2018,07,25,17,13,28.00
2018,07,25,17,14,28.10
2018,07,25,17,15,28.00
2018,07,25,17,16,28.00
2018,07,25,17,17,28.00
2018,07,25,17,18,28.00
2018,07,25,17,19,28.00